EHI
0 0 0 0 0 0 0 0 0 0 0 0 0 0 0 0 0 0 0 0 0 0 0 0 0 0 0 0 0 0 0 0 0 0 0 0 0 0 0 0 0 0 0 0
0 0 0 0 0 0 0 0 0 0 0 0 0 0 0 0 0 0 0 0 0 0 0 0 0 0 0 0 0 0 0 0 0 0 0 0 0 0 0 0 0 0 0 0
0 0 0 0 0 0 0 0 0 0 0 0 0 0 0 0 0 0 0 0 0 0 0 0 0 0 0 0 0 0 0 0 0 0 0 0 0 0 0 0 0 0 0 0
0 0 0 0 0 0 0 0 0 0 0 0 0 0 0 0 0 0 0 0 0 0 0 0 0 0 0 0 0 0 0 0 0 0 0 0 0 0 0 0 0 0 0 0
0 0 0 0 0 0 0 0 0 0 0 0 0 0 0 0 0 0 0 0 0 0 0 0 0 0 0 0 0 0 0 0 0 0 0 0 0 0 0 0 0 0 0 0
0 0 0 0 0 0 0 0 0 0 0 0 0 0 0 0 0 0 0 0 0 0 0 0 0 0 0 0 0 0 0 0 0 0 0 0 0 0 0 0 0 0 0 0
0 0 0 0 0 0 0 0 0 0 0 0 0 0 0 0 0 0 0 0 0 0 0 0 0 0 0 0 0 0 0 0 0 0 0 0 0 0 0 0 0 0 0 0
0 0 0 0 0 0 0 0 0 0 0 0 0 0 0 0 0 0 0 0 0 0 0 0 0 0 0 0 0 0 0 0 0 0 0 0 0 0 0 0 0 0 0 0
0 0 0 0 0 0 0 0 0 0 0 0 0 0 0 0 0 0 0 0 0 0 0 0 0 0 0 0 0 0 0 0 0 0 0 0 0 0 0 0 0 0 0 0
0 0 0 0 0 0 0 0 0 0 0 0 0 0 0 0 0 0 0 0 0 0 0 0 0 0 0 0 0 0 0 0 0 0 0 0 0 0 0 0 0 0 0 0
0 0 0 0 0 0 0 0 0 0 0 0 0 0 0 0 0 0 0 0 0 0 0 0 0 0 0 0 0 0 0 0 0 0 0 0 0 0 0 0 0 0 0 0
0 0 0 0 0 0 0 0 0 0 0 0 0 0 0 0 0 0 0 0 0 0 0 0 0 0 0 0 0 0 0 0 0 0 0 0 0 0 0 0 0 0 0 0
0 0 0 0 0 0 0 0 0 0 0 0 0 0 0 0 0 0 0 0 0 0 0 0 0 0 0 0 0 0 0 0 0 0 0 0 0 0 0 0 0 0 0 0
0 0 0 0 0 0 0 0 0 0 0 0 0 0 0 0 0 0 0 0 0 0 0 0 0 0 0 0 0 0 0 0 0 0 0 0 0 0 0 0 0 0 0 0
0 0 0 0 0 0 0 0 0 0 0 0 0 0 0 0 0 0 0 0 0 0 0 0 0 0 0 0 0 0 0 0 0 0 0 0 0 0 0 0 0 0 0 0
0 0 0 0 0 0 0 0 0 0 0 0 0 0 0 0 0 0 0 0 0 0 0 0 0 0 0 0 0 0 0 0 0 0 0 0 0 0 0 0 0 0 0 0
0 0 0 0 0 0 0 0 0 0 0 0 0 0 0 0 0 0 0 0 0 0 0 0 0 0 0 0 0 0 0 0 0 0 0 0 0 0 0 0 0 0 0 0
0 0 0 0 0 0 0 0 0 0 0 0 0 0 0 0 0 0 0 0 0 0 0 0 0 0 0 0 0 0 0 0 0 0 0 0 0 0 0 0 0 0 0 0
0 0 0 0 0 0 0 0 0 0 0 0 0 0 0 0 0 0 0 0 0 0 0 0 0 0 0 0 0 0 0 0 0 0 0 0 0 0 0 0 0 0 0 0
0 0 0 0 0 0 0 0 0 0 0 0 0 0 0 0 0 0 0 0 0 0 0 0 0 0 0 0 0 0 0 0 0 0 0 0 0 0 0 0 0 0 0 0
0 0 0 0 0 0 0 0 0 0 0 0 0 0 0 0 0 0 0 0 0 0 0 0 0 0 0 0 0 0 0 0 0 0 0 0 0 0 0 0 0 0 0 0
0 0 0 0 0 0 0 0 0 0 0 0 0 0 0 0 0 0 0 0 0 0 0 0 0 0 0 0 0 0 0 0 0 0 0 0 0 0 0 0 0 0 0 0
0 0 0 0 0 0 0 0 0 0 0 0 0 0 0 0 0 0 0 0 0 0 0 0 0 0 0 0 0 0 0 0 0 0 0 0 0 0 0 0 0 0 0 0
0 0 0 0 0 0 0 0 0 0 0 0 0 0 0 0 0 0 0 0 0 0 0 0 0 0 0 0 0 0 0 0 0 0 0 0 0 0 0 0 0 0 0 0
0 0 0 0 0 0 0 0 0 0 0 0 0 0 0 0 0 0 0 0 0 0 0 0 0 0 0 0 0 0 0 0 0 0 0 0 0 0 0 0 0 0 0 0
0 0 0 0 0 0 0 0 0 0 0 0 0 0 0 0 0 0 0 0 0 0 0 0 0 0 0 0 0 0 0 0 0 0 0 0 0 0 0 0 0 0 0 0
0 0 0 0 0 0 0 0 0 0 0 0 0 0 0 0 0 0 0 0 0 0 0 0 0 0 0 0 0 0 0 0 0 0 0 0 0 0 0 0 0 0 0 0
Wind_Speed
4 5 3 4 5 3 3 6 7 7 8 10 11 10 9 8 8 8 7 7 6 5 5 5 5 5 6 6 6 6 8 8 8 7 8 8 8 9 9 9 9 9 9 9
4 4 4 4 5 4 1 2 4 6 3 5 10 9 9 9 10 9 8 7 6 6 5 5 5 5 6 6 6 6 7 7 7 8 8 8 8 8 9 9 8 9 9 9
3 5 3 3 3 1 2 2 5 6 7 13 11 11 11 10 10 10 9 8 7 6 5 5 5 6 6 6 6 7 7 7 7 7 8 8 8 8 8 8 8 8 8 8
1 3 2 5 2 3 5 3 3 6 11 13 11 9 7 8 10 10 10 9 8 7 5 4 5 5 5 6 6 7 6 7 6 7 7 7 7 7 6 6 6 6 6 6
1 1 4 3 1 2 4 1 3 11 13 12 13 9 5 6 8 8 9 8 7 6 6 5 5 5 6 6 6 6 6 6 6 6 6 6 6 6 5 5 5 5 5 6
2 1 4 4 2 3 6 2 4 11 14 15 11 7 6 9 9 10 9 8 7 7 7 6 5 5 6 6 6 6 6 5 5 5 6 6 5 5 4 5 5 5 5 5
3 3 5 4 2 2 1 6 8 11 14 13 6 5 10 13 11 10 9 8 8 8 6 6 5 6 7 6 5 5 5 5 5 5 5 5 5 4 5 5 5 5 5 4
2 2 6 4 1 3 5 4 10 10 10 9 9 13 15 14 13 12 10 9 8 7 6 5 5 6 6 5 4 5 5 5 4 3 3 5 5 4 5 6 6 5 4 4
4 6 4 1 2 2 6 9 7 8 10 12 13 14 14 13 12 11 10 8 7 7 6 5 5 6 6 4 4 5 5 5 4 4 4 4 4 5 4 4 4 3 3 3
0 1 1 4 5 5 7 8 9 12 13 14 14 15 14 13 11 10 9 8 7 7 7 5 5 5 5 4 5 6 5 5 5 5 6 6 5 4 4 3 4 3 3 3
1 2 4 4 6 9 11 13 14 12 12 14 17 15 13 11 11 10 8 7 6 7 7 6 5 5 5 5 6 6 5 5 6 6 6 6 6 5 4 2 3 5 4 4
6 7 6 4 6 12 14 13 14 14 12 12 14 14 12 11 9 8 9 7 7 7 6 6 6 5 5 5 6 6 5 5 4 4 4 4 5 5 9 7 7 7 7 6
5 6 7 8 9 11 12 13 14 14 14 13 11 11 11 10 8 9 9 9 8 7 7 6 6 5 4 4 5 5 5 4 4 4 4 4 4 4 3 5 8 8 6 6
11 12 10 8 10 11 14 14 13 13 13 12 11 11 10 9 10 10 9 8 8 8 7 7 6 5 4 4 5 5 5 5 5 4 4 4 3 3 3 3 2 1 2 1
7 10 11 11 12 13 14 14 14 13 12 11 11 11 12 11 10 9 8 8 8 8 7 7 6 5 4 5 5 5 4 3 3 3 3 3 3 3 3 3 3 1 0 1
10 13 14 14 15 14 15 15 14 13 12 11 11 11 11 10 9 8 8 8 9 8 7 7 6 5 5 6 5 4 3 5 5 3 3 3 3 3 3 3 3 2 2 2
13 13 14 15 14 14 13 13 13 13 12 12 12 12 11 10 9 8 8 8 8 7 7 6 6 5 5 6 5 4 3 3 4 3 3 3 3 4 4 4 3 3 3 3
11 12 13 15 15 14 13 13 13 13 12 12 13 12 11 10 10 9 8 7 7 6 5 6 6 6 5 5 4 3 3 2 2 2 2 2 3 3 4 4 4 4 3 2
12 13 13 13 13 13 12 12 12 12 12 13 13 11 10 9 9 8 8 8 8 6 5 6 9 6 5 5 5 3 3 3 2 2 2 4 3 3 3 3 3 3 3 2
12 13 14 14 14 13 13 12 12 12 11 12 12 11 10 9 9 9 8 7 6 6 6 7 7 5 5 5 5 3 3 4 4 3 3 3 3 3 3 4 4 4 3 3
14 14 15 14 14 14 13 13 13 12 12 12 12 12 10 9 9 8 7 5 5 6 7 9 6 4 4 4 4 3 3 4 4 4 4 4 4 3 3 4 4 4 4 3
13 14 15 14 14 12 12 12 12 13 12 12 12 11 10 9 9 7 7 6 6 9 7 5 4 5 6 5 3 3 3 4 4 4 4 4 4 4 4 4 4 4 4 3
12 12 14 14 14 12 12 12 13 13 12 12 12 11 11 9 8 7 6 5 6 10 7 5 6 8 8 4 3 3 3 4 4 5 5 5 5 5 4 4 4 4 4 4
10 12 13 13 12 12 12 11 11 10 11 11 11 11 10 7 5 5 6 9 11 11 6 7 10 11 9 4 3 3 3 4 4 5 5 5 5 5 4 4 4 4 4 5
10 11 13 14 13 11 11 11 10 9 10 8 9 10 9 7 7 6 6 9 12 11 6 8 12 11 6 4 3 3 3 4 5 5 5 5 5 5 5 5 5 5 4 4
10 11 11 12 10 9 9 9 8 8 8 8 7 7 7 6 7 7 7 9 11 11 7 5 6 7 5 4 4 4 4 4 5 5 6 6 6 6 6 6 7 6 5 5
9 8 8 8 8 9 9 9 9 8 9 9 8 7 7 7 7 8 8 8 8 7 6 6 5 6 5 5 5 4 4 4 4 5 5 5 5 6 7 8 6 6 5 5
Wind_Direction
238 257 265 276 288 269 210 196 192 201 179 186 173 158 150 143 133 126 121 115 106 101 97 91 89 85 81 77 76 82 84 84 84 85 87 87 84 80 79 79 80 78 76 69
316 305 314 313 317 301 280 151 137 134 156 147 136 132 142 146 143 141 136 129 119 113 109 104 102 101 93 88 84 87 90 89 88 88 87 86 85 84 81 78 77 78 74 71
293 305 345 309 274 245 121 141 155 176 168 142 142 153 159 158 152 149 144 137 130 124 119 114 106 101 99 97 94 92 93 94 90 90 89 87 91 86 85 83 82 79 77 76
282 1 278 257 299 99 100 56 103 117 139 150 144 137 138 149 149 147 145 139 133 129 124 116 109 106 104 100 98 97 95 96 96 94 92 91 91 91 90 91 91 89 83 77
123 288 281 289 297 160 130 77 116 129 134 127 121 108 113 137 140 141 139 137 134 131 125 120 117 115 110 103 99 100 101 98 98 99 98 96 96 98 97 96 92 89 86 80
144 196 250 253 272 128 98 140 159 145 145 145 143 148 165 151 137 132 130 132 130 125 120 120 121 118 112 109 107 108 109 106 102 102 102 101 103 101 96 98 98 95 84 77
182 221 261 261 276 88 185 223 163 157 155 158 168 158 143 140 134 133 132 130 126 123 122 123 120 114 112 110 111 113 107 102 98 98 104 106 101 99 104 100 93 85 78 64
154 197 255 287 85 175 206 138 141 149 153 144 123 120 130 135 136 137 135 131 128 126 123 121 120 116 113 115 119 111 107 104 103 104 110 107 101 99 105 110 106 99 87 65
187 215 249 318 130 131 127 125 131 140 141 132 127 132 134 136 139 139 137 134 130 128 123 119 121 123 121 126 119 112 104 97 90 81 72 84 96 103 101 104 110 112 104 90
37 245 127 91 88 89 110 121 128 134 137 136 133 137 135 138 140 139 137 137 134 133 130 128 126 126 132 128 117 111 104 99 96 88 77 65 65 81 101 113 117 120 120 112
116 152 89 71 102 109 104 110 117 123 131 136 135 138 139 141 143 144 141 138 137 136 134 135 131 129 131 123 112 106 102 99 97 95 94 80 66 55 76 79 160 146 148 143
201 193 152 156 136 124 121 124 128 126 123 130 136 138 137 138 139 139 138 134 133 134 135 135 132 130 128 121 117 114 110 110 111 110 105 102 97 67 43 57 80 114 133 132
167 141 124 127 126 124 125 129 131 130 133 133 133 134 133 133 135 135 136 139 143 144 142 138 134 136 140 130 123 123 130 133 129 123 124 124 118 112 89 40 51 71 100 117
124 115 110 119 125 125 125 126 125 124 129 132 132 132 130 130 135 138 144 148 145 141 141 142 143 150 155 136 128 126 127 136 139 145 150 150 148 143 138 132 107 30 29 111
122 124 128 125 120 123 126 127 126 129 131 131 134 135 137 139 143 145 145 143 139 140 142 142 145 157 152 134 129 131 128 132 137 142 147 152 151 149 149 147 144 149 8 326
117 118 124 127 131 135 136 137 137 140 140 137 138 141 143 142 141 142 143 143 143 149 151 150 156 164 147 133 127 126 140 149 140 136 136 139 149 154 158 157 158 170 199 232
133 140 142 143 143 144 145 145 145 145 144 143 145 144 142 141 141 144 148 151 152 154 155 155 162 160 149 143 138 140 143 145 139 129 139 150 153 161 166 165 175 193 221 230
152 153 153 152 150 149 148 146 146 145 146 146 145 143 145 148 153 155 153 146 140 143 156 161 161 156 155 152 146 145 147 151 152 159 158 159 159 159 160 167 181 193 223 246
147 149 150 149 149 148 148 148 147 147 146 146 147 149 151 152 152 149 145 143 147 156 176 170 160 156 164 173 159 152 164 175 180 176 167 165 157 157 164 174 188 201 208 217
149 150 150 148 147 147 148 149 148 147 148 147 146 147 149 152 151 149 147 155 170 176 173 165 158 161 176 184 172 163 176 178 176 174 170 168 173 182 185 190 194 204 213 212
153 152 151 151 150 151 152 151 150 151 150 149 150 154 156 156 155 151 150 164 193 173 163 165 164 172 183 187 182 176 178 178 180 181 182 183 186 193 197 198 199 202 205 204
155 153 153 152 150 152 154 152 151 151 151 153 154 154 153 155 156 156 166 173 180 170 162 166 173 186 190 185 178 182 183 185 185 185 187 189 187 193 201 201 204 207 205 201
155 154 154 155 154 153 152 154 155 156 157 159 159 160 161 164 162 161 174 186 168 171 168 179 190 194 193 182 182 191 195 196 195 193 192 193 194 193 195 200 203 203 203 204
153 153 152 151 148 150 156 160 159 160 160 160 163 164 162 162 169 177 170 173 175 174 179 193 198 199 190 182 189 204 211 207 204 200 196 194 196 196 197 198 204 208 206 203
152 151 152 153 156 161 161 158 154 156 157 161 167 169 168 168 170 176 170 171 176 174 182 196 197 195 188 190 200 213 221 216 210 202 198 195 198 200 201 202 203 206 206 205
155 158 162 164 162 160 160 160 161 164 162 164 171 175 173 171 169 166 168 173 176 179 180 183 192 195 200 207 214 220 229 233 219 209 205 200 200 199 201 204 207 207 207 207
152 152 153 154 157 159 161 163 165 168 169 169 173 177 174 170 167 169 169 172 176 181 183 186 191 197 205 213 221 225 226 225 219 212 205 201 197 198 202 203 205 206 204 204